Погода в Красноярихе

Россия / Самарская область     54°17′28″N   50°51′26″E
темп.,
°C
ветер,
м/с
пор.,
м/с
влажн.,
%
обл.,
%
осадки,
мм/ч
давл.,
гПа
погр.,
м
25 января, вт
вт2501:00−19юв22965 0.0 103511
04:00−19ююв22955 0.0 103424
07:00−20юв22975 0.0 103314
10:00−19ююв23965 0.0 103243
13:00−14ююв279252 0.0 1031165
16:00−15юв249474 0.0 102947
19:00−17юв359699 0.0 102860
22:00−16юв389782 0.0 1027105
26 января, ср
ср2601:00−16юв399799 0.0 1025124
04:00−14юв4109697 0.0 1023161
07:00−13юв41095100 0.0 1022217
10:00−11ююв41094100 0.1 1021249
13:00−9ююв4894100 0.1 1019291
16:00−8ююв3695100 0.2 1019243
19:00−9ююв249797 0.1 101870
22:00−9ююз3796100 0.3 1019160
27 января, чт
чт2701:00−11ююз379779 0.1 1019131
04:00−16ююз359977 0.1 102066
07:00−17ю36100100 0.0 102177
10:00−15ю3797100 0.0 1022144
13:00−12ю389539 0.0 1022209
16:00−14ю349732 0.0 102257
19:00−16ююв339967 0.0 102332
22:00−17ю229987 0.0 102227
28 января, пт
пт2801:00−16ююв2299100 0.0 102231
04:00−17юв2299100 0.0 102212
07:00−14вюв1197100 0.0 102114
10:00−12в2295100 0.0 102146
13:00−9св2393100 0.0 1020100
16:00−7всв2593100 0.0 1019152
19:00−8св3695100 0.1 1017138
22:00−6в3896100 0.6 1016307
29 января, сб
сб2901:00−6в3696100 0.6 1015232
04:00−7вюв2696100 0.9 1014232
07:00−10юв229773 0.3 101236
10:00−12ююв229875 0.3 101236
13:00−9ююв359585 0.1 1011189
16:00−10ююв369667 0.1 101091
19:00−9ююв499591 0.1 1009252
22:00−9ююв389696 0.3 1008219